Weather History for TTPP - November, 2012

Change the Weather History Date:

Monday, November 26, 2012

  Actual Average Record
Temperature  
Mean Temperature 82 °F -  
Max Temperature 88 °F 85 °F 91 °F (2005)
Min Temperature 75 °F 72 °F 72 °F (2013)
Cooling Degree Days 16    
Growing Degree Days 32 (Base 50)    
Moisture  
Dew Point 75 °F    
Average Humidity 79    
Maximum Humidity 100    
Minimum Humidity 54    
Precipitation  
Precipitation 0.00 in 0.22 in - ()
Sea Level Pressure  
Sea Level Pressure 29.90 in    
Wind  
Wind Speed 7 mph ()    
Max Wind Speed 21 mph    
Max Gust Speed -    
Visibility 6.7 miles    
Events Rain    
Averages and records for this station are not official NWS values.
T = Trace of Precipitation, MM = Missing Value Source: Averaged Metar Reports

Daily Weather History Graph

Daily Weather History Graph

Search for Another Location

Airport or City:

Trip Planner

Search our weather history database for the weather conditions in past years. The results will help you decide how hot, cold, wet, or windy it might be!

Date:

Astronomy

Nov. 26, 2012 Rise Set
Actual Time 6:05 AM AST 5:40 PM AST
Civil Twilight 5:43 AM AST 6:02 PM AST
Nautical Twilight 5:17 AM AST 6:28 PM AST
Astronomical Twilight 4:51 AM AST 6:54 PM AST
Moon 4:20 PM AST (11/26) 4:23 AM AST (11/26)
Length of Visible Light 12h 19m
Length of Day
11h 34m
Waxing Gibbous, 97% of the Moon is Illuminated
Nov 26
Waxing Gibbous
Nov 28
Full
Dec 6
Last Quarter
Dec 13
New
Dec 20
First Quarter

Hourly Weather History & Observations

Time (AST) Temp. Heat Index Dew Point Humidity Pressure Visibility Wind Dir Wind Speed Gust Speed Precip Events Conditions
12:00 AM 77.0 °F - 77.0 °F 100% 29.92 in 3.7 mi ENE 9.2 mph - N/A   Mostly Cloudy
1:00 AM 77.0 °F - 77.0 °F 100% 29.89 in 3.7 mi East 13.8 mph - N/A Rain Light Rain Showers
2:00 AM 77 °F - 75 °F 91% 29.88 in 6 mi SE 3.5 mph - -   Partly Cloudy
2:00 AM 77.0 °F - 75.2 °F 94% 29.86 in 5.6 mi SE 3.5 mph - N/A   Scattered Clouds
3:00 AM 77.0 °F - 75.2 °F 94% 29.86 in 6.2 mi Calm Calm - N/A   Scattered Clouds
4:00 AM 77.0 °F - 75.2 °F 94% 29.86 in 6.2 mi SSE 6.9 mph - N/A   Scattered Clouds
5:00 AM 76 °F - 75 °F 94% 29.89 in 9 mi SE 4.6 mph - - Rain Light Rain Showers
5:00 AM 75.2 °F - 75.2 °F 100% 29.89 in 6.2 mi SE 4.6 mph - N/A Rain Light Rain Showers
6:00 AM 77.0 °F - 75.2 °F 94% 29.89 in 6.2 mi Calm Calm - N/A   Mostly Cloudy
7:00 AM 78.8 °F - 75.2 °F 89% 29.92 in 6.2 mi East 3.5 mph - N/A   Scattered Clouds
8:00 AM 83 °F - 76 °F 75% 29.95 in 6 mi East 11.5 mph - -   Scattered Clouds
8:00 AM 82.4 °F 90.9 °F 77.0 °F 84% 29.95 in 6.2 mi East 11.5 mph - N/A   Scattered Clouds
9:00 AM 84.2 °F 98.3 °F 80.6 °F 89% 29.95 in 6.2 mi East 13.8 mph - N/A   Mostly Cloudy
10:00 AM 87.8 °F 99.7 °F 77.0 °F 70% 29.95 in 6.2 mi ESE 13.8 mph - N/A   Mostly Cloudy
11:00 AM 87 °F - 77 °F 64% 29.96 in 7 mi SE 13.8 mph - - Rain Light Rain Showers
11:00 AM 87.8 °F 99.7 °F 77.0 °F 70% 29.95 in 6.2 mi SE 13.8 mph - N/A Rain Light Rain Showers
12:00 PM 87.8 °F 97.6 °F 75.2 °F 66% 29.92 in 6.2 mi East 20.7 mph - N/A   Mostly Cloudy
1:00 PM 87.8 °F 99.7 °F 77.0 °F 70% 29.89 in 6.2 mi East 15.0 mph - N/A   Mostly Cloudy
2:00 PM 86 °F - 73 °F 58% 29.88 in 11 mi East 13.8 mph - -   Scattered Clouds
2:00 PM 86.0 °F 93.4 °F 73.4 °F 66% 29.86 in 6.2 mi East 13.8 mph - N/A   Partly Cloudy
3:00 PM 87.8 °F 95.6 °F 73.4 °F 62% 29.86 in 6.2 mi East 18.4 mph - N/A   Partly Cloudy
4:00 PM 87.8 °F 95.6 °F 73.4 °F 62% 29.83 in 6.2 mi East 16.1 mph - N/A   Partly Cloudy
5:00 PM 86 °F - 72 °F 54% 29.86 in 9 mi ESE 13.8 mph - -   Partly Cloudy
5:00 PM 86.0 °F 91.8 °F 71.6 °F 62% 29.86 in 6.2 mi ESE 13.8 mph - N/A   Partly Cloudy
6:00 PM 82.4 °F 88.2 °F 73.4 °F 74% 29.86 in 6.2 mi ESE 10.4 mph - N/A   Partly Cloudy
7:00 PM 82.4 °F 87.2 °F 71.6 °F 70% 29.86 in 6.2 mi Calm Calm - N/A   Partly Cloudy
8:00 PM 81 °F - 73 °F 71% 29.91 in 11 mi Calm Calm - -   Haze
8:00 PM 80.6 °F 85.4 °F 73.4 °F 79% 29.89 in 6.2 mi Calm Calm - N/A   Partly Cloudy
9:00 PM 80.6 °F 85.4 °F 73.4 °F 79% 29.92 in 6.2 mi Calm Calm - N/A   Partly Cloudy
10:00 PM 80.6 °F 86.2 °F 75.2 °F 84% 29.92 in 6.2 mi Calm Calm - N/A   Partly Cloudy
11:00 PM 80 °F - 75 °F 81% 29.92 in 12 mi Calm Calm - -   Scattered Clouds
11:00 PM 78.8 °F - 75.2 °F 89% 29.92 in 6.2 mi Calm Calm - N/A   Partly Cloudy